Weather Roundup
Issued by NWS Corpus Christi, TX

Home | Current Version | Previous Version | Text Only | Print | Product List | Glossary On
Versions: 1 2 3 4 5 6 7 8 9 10 11 12 13 14 15 16 17 18 19 20 21 22 23 24 25 26 27 28 29 30 31 32 33 34 35 36 37 38 39 40 41 42 43 44 45 46 47 48 49 50
000
ASUS44 KCRP 060310
HRRCRP

SOUTH TEXAS REGIONAL WEATHER ROUNDUP
NATIONAL WEATHER SERVICE CORPUS CHRISTI TX
900 PM CST FRI FEB 05 2016


TXZ229>244-060400-
...CORPUS CHRISTI AREA OBSERVATIONS...

CITY           SKY/WX    TMP DP  RH WIND       PRES   REMARKS
CORPUS CHRISTI CLOUDY    60  48  64 E6        30.29R
NAS CORPUS CHR CLOUDY    60  53  77 E3        30.28S
ROCKPORT       CLOUDY    60  50  69 E8        30.30R
KINGSVILLE NAS CLOUDY    57  49  74 NE3       30.28S
ALICE          CLOUDY    57  45  64 E5        30.28R
FALFURRIAS     CLOUDY    57  47  68 NE3       30.28R
$$

...VICTORIA AREA OBSERVATIONS...

CITY           SKY/WX    TMP DP  RH WIND       PRES   REMARKS
VICTORIA       CLOUDY    54  43  66 E9        30.32S
BEEVILLE       CLOUDY    55  46  71 E7        30.30S
PLEASANTON     CLOUDY    52  40  64 E3        30.31R
SAN ANTONIO    CLOUDY    53  40  61 SE10      30.31R
$$

...LAREDO AREA OBSERVATIONS...

CITY           SKY/WX    TMP DP  RH WIND       PRES   REMARKS
LAREDO         CLEAR     55  42  61 SE6       30.27R
COTULLA        MOCLDY    55  39  54 SE5       30.29R
DEL RIO        CLEAR     51  31  46 NE5       30.29R
MCALLEN        CLOUDY    63  47  55 E3        30.26S
HEBBRONVILLE   NOT AVBL
$$

...OTHER TEXAS OBSERVATIONS...

CITY           SKY/WX    TMP DP  RH WIND       PRES   REMARKS
BROWNSVILLE    CLOUDY    60  51  72 CALM      30.27R
HOUSTON        PTCLDY    44  33  65 E8        30.37R
COL. STATION   MOCLDY    49  29  46 SE12      30.34S
AUSTIN         CLOUDY    52  38  58 S5        30.31R
WACO           CLOUDY    45  26  47 SE8       30.29F
FORT WORTH     MOCLDY    48  22  35 SE10      30.26F
WICHITA FALLS  CLOUDY    52  25  35 VRB5      30.20R
LUBBOCK        CLEAR     35  21  56 NW14      30.31S WCI  26
EL PASO        CLEAR     41   1  18 N7        30.39R
$$

...MARINE OBSERVATIONS...

STATION/POSITION TIME  SKY/WX   TEMP    WIND        PRES    VSBY  WAVE   SWELL
                                AIR SEA DIR/SP/G                  HT/PER HT/PER
                 (UTC)          (F)     (DEG/KT/KT) (MB)    (MI)  (FT/S) (FT/S)
PORT ARANSAS     0300            59 59   60/  9/ 10 1026.2R
BUOY 90 E PORT A 0250            60 67  100/ 16/ 19 1026.0R         4/ 5
BUOY 45 SE BAFFI 0250            63 67  140/ 14/ 17 1024.6S         4/ 6   2/ 7
BUOY 200 E PT IS 0250                                 N/A           5/ 8   5/ 8
BUOY 15 E GALVES 0250            53 58  110/ 14/ 16 1028.4F         3/ 6   2/ 7
$$



USA.gov is the U.S. government's official web portal to all federal, state and local government web resources and services.